{"data":{"norad_id":57898,"intl_designator":"2023-146H","name":"STARLINK-30479","alt_names":[],"object_type":"PAYLOAD","status":"ACTIVE","operator":null,"country":"US","launch_date":"2023-09-20","launch_site_code":"AFETR","launch_vehicle":null,"mission":null,"orbit_class":"UNKNOWN","rcs_meters":null,"size_class":null,"mass_kg":null,"dimensions":null,"purposes":["comms"],"wikipedia_slug":null,"has_3d_model":false,"image_url":null,"decayed_at":null,"tle_current":{"epoch":"2026-09-20T09:32:35.004768Z","epoch_age_seconds":143494,"freshness":"FRESH","line1":"1 57898U 23146H   26263.39762737 -.00000657  00000+0 -14367-4 0  9990","line2":"2 57898  43.0012 294.6510 0001186 268.7215  91.3501 15.27578311166836","mean_motion":15.27578311,"eccentricity":0.0001186,"inclination_deg":43.0012,"raan_deg":294.651,"arg_perigee_deg":268.7215,"mean_anomaly_deg":91.3501,"bstar":-1.4367e-5,"rev_number":16683,"period_min":94.266852941721,"perigee_km":482.24041624712,"apogee_km":483.86789078873,"semimajor_km":6861.1911535179,"source":"CELESTRAK","updated_at":"2026-09-21T09:00:33.721867Z"}}}